Regional Weather Roundup
Issued by NWS

Home | Current Version | Previous Version | Graphics & Text | Print | Product List | Glossary On
Versions: 1 2 3 4 5 6 7 8 9 10 11 12 13 14 15 16 17 18 19 20 21 22 23 24 25 26 27 28 29 30 31 32 33 34 35 36 37 38 39 40 41 42 43 44 45 46 47 48 49 50
000
ASUS45 KTFX 251410
RWRMT
MONTANA REGIONAL WEATHER ROUNDUP
NATIONAL WEATHER SERVICE GREAT FALLS MT
800 AM MDT MON SEP 25 2017

NOTE: "FAIR" INDICATES FEW OR NO CLOUDS BELOW 12000 FEET WITH NO
SIGNIFICANT WEATHER AND/OR OBSTRUCTIONS TO VISIBILITY.

MTZ001>007-043-251500-
WEST OF THE DIVIDE

CITY           SKY/WX    TMP DP  RH WIND       PRES   REMARKS
KALISPELL      CLOUDY    46  43  89 NW3       30.06S
MISSOULA       CLOUDY    47  42  83 CALM      30.10S
BUTTE          CLOUDY    31  28  89 CALM      30.13S
MULLAN PASS    CLOUDY    40  35  83 NW5       30.11S
ANACONDA         N/A     39  28  65 SE9       30.11R
DEER LODGE       N/A     37  34  87 CALM      30.14R
EUREKA           N/A     48  39  71 MISG      30.06R
HAMILTON         N/A     46  36  66 SE8       30.11S
LIBBY            N/A     41  39  93 CALM      30.06R
PLAINS           N/A     44  39  82 MISG      30.09R
RONAN            N/A     48  44  86 CALM      30.11R
THOMPSON FALLS   N/A     46  43  90 CALM      30.12S
$$

MTZ008-052>055-251500-
SOUTHWEST MONTANA

CITY           SKY/WX    TMP DP  RH WIND       PRES   REMARKS
BOZEMAN        CLOUDY    32  29  88 SE5       30.14R
DILLON         CLOUDY    34  29  82 W5        30.12S
W YELLOWSTONE  CLOUDY    27  27 100 CALM      30.14S
ENNIS          PTCLDY    27  23  86 E5        30.18S
THREE FORKS      N/A     31  29  92 CALM      30.11R
TWIN BRIDGES     N/A     32  25  76 CALM      30.10R
$$

MTZ009-010-012-014-046-048-049-054-251500-
EAST SLOPES AND CENTRAL MONTANA

CITY           SKY/WX    TMP DP  RH WIND       PRES   REMARKS
CUT BANK       PTCLDY    31  28  89 CALM      30.02S
GREAT FALLS    CLEAR     40  31  70 S10       30.04S
MALMSTROM AFB  CLEAR     35  31  85 S5        30.06S
HELENA         CLOUDY    37  33  85 CALM      30.11R
BOWMANS CRNR     N/A     38  32  77 S12       30.04S WCI  31
CHOTEAU          N/A     36  32  87 SW5       30.05S
FAIRFIELD        N/A     38  31  74 CALM      30.04S
POWER            N/A     30  29  96 CALM      30.04S
RAYNESFORD       N/A     32  28  84 CALM      30.07S
ULM              N/A     40  32  72 S9        30.06S
$$

MTZ011-013-016-021-045-047-050-051-251500-
NORTH CENTRAL MONTANA

CITY           SKY/WX    TMP DP  RH WIND       PRES   REMARKS
HAVRE          CLEAR     33  31  92 E5        30.05S
LEWISTOWN      CLEAR     32  29  88 SE6       30.07S WCI  26
N BAR RANCH      N/A     34  28  80 NW3G12    30.10S
CHINOOK          N/A     36  34  93 CALM      30.07S
DENTON           N/A     35  31  87 S8        30.04R WCI  28
GEYSER           N/A     40  30  68 SW12      30.06S
JUDITH GAP       N/A     34  31  86 S6        30.07F WCI  29
WINIFRED         N/A     35  32  89 SE3       30.06S
$$

MTZ017>020-022>027-061-062-251500-
NORTHEAST MONTANA

CITY           SKY/WX    TMP DP  RH WIND       PRES   REMARKS
GLASGOW        CLOUDY    40  38  93 E8        30.12S
JORDAN           N/A     31  29  92 CALM      30.12S
SIDNEY           N/A    N/A N/A N/A MISG        N/A
WOLF POINT     FOG       34  33  96 E5        30.16S VSB 1/4
MALTA          CLOUDY    41  37  87 NE3       30.10S
PLENTYWOOD       N/A     39  36  87 CALM      30.16R
POPLAR           N/A     32  30  93 CALM      30.17S VSB 0
SCOBEY           N/A     40  35  82 MISG      30.11R
$$

MTZ028>42-056>058-251500-
SOUTHCENTRAL AND SOUTHEAST MONTANA

CITY           SKY/WX    TMP DP  RH WIND       PRES   REMARKS
BAKER          CLOUDY    42  39  89 CALM      30.15S
BILLINGS       CLOUDY    37  36  96 S5        30.11R
LIVINGSTON     CLEAR     28  26  92 W3        30.11S
MILES CITY     CLOUDY    38  36  92 CALM      30.14S
BIG TIMBER     CLEAR     32  30  93 SW3       30.13R
EKALAKA          N/A     40  37  89 CALM      30.10S
HARLOWTON        N/A     31  28  89 MISG      30.09S
LAUREL           N/A     36  36 100 CALM      30.12R
$$

REGIONAL REPORTS...DAKOTAS

CITY           SKY/WX    TMP DP  RH WIND       PRES   REMARKS
WILLISTON      CLOUDY    46  44  93 CALM      30.17R
MINOT          CLOUDY    48  45  89 N3        30.16R
DICKINSON      CLOUDY    44  43  96 N5        30.12F
BEACH          CLOUDY    43  41  93 SE3       30.17F
CROSBY         CLOUDY    43  39  87 NW3       30.18R
TIOGA          CLOUDY    45  45 100 CALM      30.17S
BISMARCK       CLOUDY    49  45  86 NE5       30.16F
GRAND FORKS    CLOUDY    49  46  90 N16       30.11F
FARGO          CLOUDY    50  48  93 N9        30.11R
BUFFALO SD       N/A     42  41  96 CALM      30.08S
RAPID CITY     CLOUDY    45  43  93 CALM      30.14R
$$

REGIONAL REPORTS...WYOMING/IDAHO/WASHINGTON

CITY           SKY/WX    TMP DP  RH WIND       PRES   REMARKS
GILLETTE       CLOUDY    40  39  97 W3        30.10F
SHERIDAN       LGT RAIN  43  42  97 CALM      30.12S
BUFFALO WY     LGT RAIN  39  36  89 SE3       30.12S
CODY           CLOUDY    40  37  89 CALM      30.12R
IDAHO FALLS    PTCLDY    35  32  88 CALM      30.15R
SALMON         CLOUDY    42  36  79 CALM      30.15R
BOISE          CLEAR     41  33  73 S8        30.10R
SPOKANE        MOCLDY    51  44  77 SE5       30.07S
$$

REGIONAL REPORTS...ALBERTA

CITY           SKY/WX    TMP DP  RH WIND       PRES   REMARKS
EDMONTON       MOCLDY    50  46  87 SW6       29.90S
CALGARY        MOCLDY    43  36  75 CALM      29.97S
LETHBRIDGE     MOCLDY    46  36  66 SW5       29.98R
MEDICINE HAT   PTCLDY    36  30  80 S3        29.99S
$$

REGIONAL REPORTS...SASKATCHEWAN

CITY           SKY/WX    TMP DP  RH WIND       PRES   REMARKS
SWIFT CURRENT    N/A     39  36  87 S13       30.04R WCI  32
REGINA         CLOUDY    45  37  76 SE6       30.14R
SASKATOON      PTCLDY    41  37  87 S7        30.07S
$$



USA.gov is the U.S. government's official web portal to all federal, state and local government web resources and services.